CAPE
0 0 0 0 0 0 0 0 0 0 0 0 0 0 0 0 0 36 849 722 2028 1970 1997 2259 2526 2600 2737 2539 2347 2162 1994 2057 1837 1747 1517 1206 1014 825 742 694 1047 809 713 692 568 582 447 437 484
0 0 0 0 0 0 0 0 0 0 0 0 0 0 0 0 0 525 889 701 2047 1999 1976 1957 2449 2554 2681 2589 2362 2207 2238 2010 1912 1689 1692 1522 1123 993 544 787 1049 847 595 701 461 488 433 394 493
0 4 0 0 0 0 0 0 0 0 0 0 0 0 0 0 0 183 592 738 2031 1962 1784 1947 2412 2434 2545 2476 2390 2298 2028 1920 1826 1507 1440 1291 1160 942 719 917 1160 958 646 764 609 335 509 368 326
20 0 0 0 0 0 0 0 0 0 0 0 0 0 0 0 0 600 782 764 2045 1976 1737 2029 2359 2316 2268 2412 2277 2231 2105 1742 1669 1396 1265 1313 1192 1084 1367 895 989 651 567 608 668 371 290 187 116
14 0 0 0 0 0 0 0 0 0 0 0 0 0 0 0 281 704 823 678 2069 1895 1754 1883 2347 2279 2231 2335 2226 2105 2024 1799 1589 1335 1298 1240 1118 1049 765 884 844 630 583 493 390 163 58 106 92
40 0 0 0 0 0 0 0 0 0 0 0 0 0 0 0 3 462 773 735 1873 1788 1774 1766 2020 1990 2028 2246 2143 2025 1848 1706 1500 1248 1157 1022 846 1050 658 794 674 592 442 225 105 49 21 71 58
13 9 0 0 0 0 0 0 0 0 0 0 0 0 0 0 65 314 752 594 871 1710 1681 1696 1783 1770 1749 1863 1813 1760 1643 1348 1189 990 798 608 803 875 748 720 514 430 314 75 68 32 30 42 32
1 21 4 0 0 0 0 0 0 0 0 0 0 0 0 0 30 565 810 868 883 1785 1562 1600 1512 1671 1581 1559 1435 1340 1117 983 780 475 240 119 364 420 610 318 299 272 160 73 38 25 34 28 16
0 10 0 0 0 0 0 0 0 0 0 0 0 0 0 0 0 172 837 951 1466 1636 1574 1479 1384 1402 1382 1180 869 710 516 411 116 6 19 53 128 108 86 55 60 87 55 37 12 5 2 3 6
8 5 0 0 0 0 0 0 0 0 0 0 0 0 0 0 3 35 246 954 1318 1545 1729 1457 1322 1175 1114 895 423 184 46 9 0 0 14 20 28 53 58 26 37 37 34 24 5 0 0 0 0
0 8 0 0 0 0 0 0 0 0 0 0 0 0 0 0 0 413 340 655 1386 1411 1542 1323 1141 1077 955 639 284 35 0 0 0 0 0 4 13 26 27 20 5 0 0 0 0 1 0 0 0
0 0 0 0 0 0 0 0 0 0 0 0 0 0 0 0 0 387 535 529 1268 1397 1213 1026 1194 1123 890 479 112 0 0 0 0 0 0 17 9 22 1 1 0 0 0 0 0 0 0 0 0
0 0 0 0 0 0 0 0 0 0 0 0 0 0 0 0 0 17 545 769 1203 1444 1175 615 1317 1155 738 208 0 0 0 0 0 5 4 48 25 5 1 0 0 0 0 0 0 0 0 0 0
0 0 0 0 0 0 0 0 0 0 0 0 0 0 0 0 0 0 103 776 826 1290 1164 1011 1327 928 495 18 0 0 5 0 0 0 21 38 14 5 0 0 0 0 0 0 0 0 0 0 0
0 0 0 0 0 0 0 0 0 0 0 0 0 0 0 0 0 0 0 445 449 979 1063 1058 1145 831 363 38 10 0 0 0 0 0 8 2 0 0 0 0 0 0 0 0 0 0 0 0 0
0 0 0 0 0 0 0 0 0 0 0 0 0 0 0 0 0 0 0 11 631 814 871 987 989 688 246 48 14 11 0 0 1 0 8 1 1 0 0 0 0 0 0 0 0 0 0 0 0
0 0 0 0 0 0 0 0 0 0 0 0 0 0 0 0 0 0 0 0 69 799 818 883 759 577 230 29 12 10 0 0 0 0 10 0 0 0 0 0 0 0 0 0 0 0 0 0 0
0 0 0 0 0 0 0 0 0 0 0 0 0 0 0 0 0 0 0 0 3 668 699 929 804 555 183 33 3 3 0 0 0 0 18 5 0 0 0 0 0 0 0 0 0 0 0 0 0
0 0 0 0 0 12 0 1 0 0 0 0 0 0 0 0 0 0 0 0 0 235 607 699 640 452 77 23 5 3 0 0 0 0 0 7 8 0 0 0 0 0 0 0 0 0 0 0 0
0 0 0 0 0 11 0 0 0 0 0 0 0 0 0 0 0 0 0 0 0 12 416 533 501 225 31 17 0 0 0 0 0 0 0 0 0 0 0 0 0 0 0 0 0 0 0 0 0
0 0 0 3 0 0 0 0 0 0 0 0 0 0 0 0 0 0 0 0 0 0 45 345 237 89 0 0 0 0 0 0 0 0 0 0 0 0 0 0 0 0 0 0 0 0 0 0 0
0 0 2 14 6 0 0 0 0 0 0 0 3 0 0 0 0 0 0 0 0 0 12 104 190 81 3 0 0 0 0 0 0 0 0 0 0 0 0 0 0 0 0 0 0 0 0 0 0
0 0 0 0 0 0 0 0 0 0 0 0 0 0 0 0 0 0 0 0 0 0 11 122 132 140 1 1 0 0 0 0 0 0 0 0 0 0 0 0 0 0 0 0 0 0 0 0 0
0 0 0 0 0 0 0 5 0 1 4 0 0 0 0 0 0 0 0 0 0 0 0 136 204 224 3 1 0 0 0 0 0 0 0 0 0 0 0 0 0 0 0 0 0 0 0 0 0
0 0 0 0 0 1 1 0 4 0 0 2 1 0 0 0 0 0 0 0 0 0 0 115 103 134 41 16 0 0 0 0 0 0 0 0 0 0 0 0 0 0 0 0 0 0 0 0 0
0 0 0 0 0 0 0 0 0 0 0 0 0 0 0 0 0 0 0 0 0 0 0 151 135 112 5 1 1 1 0 0 0 0 0 0 0 0 0 0 0 0 0 0 0 0 0 0 0
0 0 0 0 0 0 0 0 5 0 0 0 0 2 1 0 0 0 0 0 0 0 1 129 126 69 6 0 1 2 0 0 0 0 0 0 0 0 0 0 0 0 0 0 0 0 0 0 0
0 0 0 0 0 0 0 0 0 0 3 0 0 3 3 1 0 0 0 0 0 0 56 148 154 40 8 4 0 0 2 0 0 0 0 0 0 0 0 0 0 0 0 0 0 0 0 0 0
0 0 0 0 0 0 0 0 0 0 1 0 1 12 9 3 0 0 0 0 0 1 113 205 153 64 17 1 1 1 1 1 0 0 0 0 0 0 0 0 0 0 0 0 0 0 0 0 0
0 0 0 2 0 0 0 0 0 0 0 0 0 7 7 1 0 0 1 0 0 19 151 202 87 37 1 1 2 2 1 1 3 1 2 2 0 0 0 0 0 0 0 0 0 0 0 0 0
CIN
0 0 0 0 0 0 0 0 0 0 0 0 0 0 0 0 0 -18 -175 -190 -143 -209 -145 -76 -23 -2 0 0 0 0 0 0 0 0 0 0 0 0 0 0 0 0 0 0 0 0 0 0 0
0 0 0 0 0 0 0 0 0 0 0 0 0 0 0 0 0 -126 -108 -145 -144 -167 -104 -85 -23 -2 0 0 0 0 0 0 0 0 0 0 0 0 -6 0 0 0 0 0 0 -2 -3 -1 0
0 -1 0 0 0 0 0 0 0 0 0 0 0 0 0 0 0 -84 -110 -146 -137 -182 -103 -63 -14 -2 0 0 0 0 0 0 0 0 0 0 0 0 0 0 0 0 0 0 -1 -21 -2 -5 -10
-4 0 0 0 0 0 0 0 0 0 0 0 0 0 0 0 0 -66 -80 -155 -99 -169 -113 -45 -5 0 0 0 0 0 0 0 0 0 0 0 0 0 0 0 0 -1 -4 -2 -2 -27 -42 -62 -31
-3 0 0 0 0 0 0 0 0 0 0 0 0 0 0 0 -65 -63 -100 -109 -49 -123 -116 -56 0 0 0 0 0 0 0 0 0 0 0 0 0 0 0 0 0 -1 -3 -17 -32 -57 0 -98 -2
-1 0 0 0 0 0 0 0 0 0 0 0 0 0 0 0 -23 -62 -75 -98 -24 -87 -110 -62 -10 -2 -1 0 0 0 0 0 0 0 0 0 -3 0 -8 0 -7 -6 -23 -80 -52 0 -1 -3 -8
0 -1 0 0 0 0 0 0 0 0 0 0 0 0 0 0 -145 -66 -37 -73 -21 -49 -92 -56 -16 -2 -2 -1 -1 0 0 0 0 -1 -5 -15 -3 -1 -6 -5 -26 -37 -75 -24 0 -3 -1 -3 -21
0 -1 0 0 0 0 0 0 0 0 0 0 0 0 0 0 -60 -42 -38 -37 -37 -50 -48 -44 -24 -5 -1 -2 -2 -1 -2 -6 -11 -21 -110 -172 -44 -39 -16 -74 -95 -90 -152 0 -7 -1 -1 -7 -22
-1 0 0 0 0 0 0 0 0 0 0 0 0 0 0 0 0 -152 -32 -22 -81 -51 -44 -25 -19 -13 -5 -4 -18 -15 -26 -46 -211 -108 -47 -257 -182 -188 -210 -171 -165 -191 -1 -16 -9 -7 -13 -26 -11
-1 0 0 0 0 0 0 0 0 0 0 0 0 0 0 0 -9 -48 -53 -24 -41 -40 -27 -38 -14 -29 -23 -20 -93 -174 -251 -116 0 0 -27 -164 -15 -307 -316 -3 -1 0 -17 -41 -26 0 0 0 0
-1 0 0 0 0 0 0 0 0 0 0 0 0 0 0 0 0 -63 -50 -36 -28 -52 -44 -30 -19 -23 -40 -51 -111 -298 0 0 0 0 0 -20 -26 -2 -3 -3 -33 0 0 0 0 -2 0 0 0
0 0 0 0 0 0 0 0 0 0 0 0 0 0 0 0 0 -119 -38 -21 -22 -31 -50 -36 -21 -12 -21 -91 -172 -129 0 0 0 -2 0 -11 -7 -6 -2 0 0 0 0 0 0 0 0 0 0
0 0 0 0 0 0 0 0 0 0 0 0 0 0 0 0 0 -18 -44 -26 -11 -14 -39 -34 -20 -16 -11 -130 0 0 0 0 0 -10 -4 -14 0 -6 -2 0 0 0 0 0 0 0 0 0 0
0 0 0 0 0 0 0 0 0 0 0 0 0 0 0 0 0 0 -90 -29 -26 -8 -17 -15 -24 -39 -45 -195 0 0 -6 0 0 0 -15 -10 -2 -1 -1 0 0 0 0 0 0 0 0 0 0
0 0 0 0 0 0 0 0 0 0 0 0 0 0 0 0 0 0 0 -10 -28 -14 -11 -15 -27 -42 -56 -154 -207 -16 -4 0 0 0 -34 -51 -17 -5 0 0 0 0 0 0 0 0 0 0 0
0 0 0 0 0 0 0 0 0 0 0 0 0 0 0 0 0 0 0 -49 -40 -29 -15 -11 -18 -45 -62 -147 -204 -204 0 0 -13 0 -47 -50 -36 -6 0 0 0 0 0 0 0 0 0 0 0
0 0 0 0 0 0 0 0 0 0 0 0 0 0 0 0 0 0 0 0 -36 -23 -25 -12 -11 -34 -35 -166 -201 -283 0 0 0 0 -56 -48 -21 0 0 0 0 0 0 0 0 0 0 0 0
0 0 0 0 0 0 0 0 0 0 0 0 0 0 0 0 0 0 0 0 -10 -15 -41 -12 -1 -15 -40 -156 -166 -314 0 0 0 0 -42 -60 0 0 0 0 0 0 0 0 0 0 0 0 0
0 0 0 0 0 -1 0 -5 0 0 0 0 0 0 0 0 0 0 0 0 0 -18 -26 -20 -3 -8 -48 -153 -203 -249 0 0 0 0 0 -51 -26 0 0 0 0 0 0 0 0 0 0 0 0
0 0 0 0 0 -2 0 0 0 0 0 0 0 0 0 0 0 0 0 0 0 -21 -8 -14 -7 -22 -71 -117 0 0 0 0 0 0 0 0 0 0 0 0 0 0 0 0 0 0 0 0 0
0 0 0 -6 0 0 0 0 0 0 0 0 0 0 0 0 0 0 0 0 0 0 -18 -12 -9 -336 0 -1 0 0 0 0 0 0 0 0 0 0 0 0 0 0 0 0 0 0 0 0 0
0 0 -3 -1 -2 0 0 -1 0 0 0 -2 -22 0 0 0 0 0 0 0 0 0 -28 -16 -26 -8 -57 -2 0 0 0 0 0 0 0 0 0 0 0 0 0 0 0 0 0 0 0 0 0
0 0 0 0 0 0 0 0 0 0 0 0 0 0 0 0 0 0 0 0 0 0 -56 -24 -13 -14 -1 -1 -1 0 -1 0 0 0 0 0 0 0 0 0 0 0 0 0 0 0 0 0 0
-1 0 0 0 0 0 0 -4 0 0 0 0 0 0 0 0 0 0 0 0 0 0 0 -35 -19 -13 -4 -2 -3 0 -6 0 0 0 0 0 0 0 0 0 0 0 0 0 0 0 0 0 0
0 0 0 0 0 -1 -3 -1 0 0 0 0 0 0 0 0 0 0 0 0 0 0 0 -31 -17 -21 -1 -18 -1 0 0 -3 0 0 0 -1 0 0 0 0 0 0 0 0 0 0 0 0 0
0 -1 0 0 0 0 0 0 0 0 0 0 0 0 0 0 0 0 0 0 0 0 0 -23 -17 -1 0 0 -1 -2 -1 0 0 0 0 0 0 0 0 0 0 0 0 0 0 0 0 0 0
0 0 0 -1 0 0 0 0 -1 0 0 0 0 0 0 0 0 0 0 0 0 0 -4 -14 -29 -20 -4 0 0 0 -1 -2 0 0 0 0 0 0 0 0 0 0 0 0 0 0 0 0 0
0 0 0 0 0 0 0 -1 0 0 0 0 0 0 0 0 0 0 0 0 0 0 -21 -25 -35 -24 -13 -21 -22 0 -8 0 0 0 0 -2 0 0 0 0 0 0 0 0 0 0 0 0 0
0 0 0 0 -2 0 0 0 0 0 -2 0 0 0 0 0 0 0 0 0 0 -6 -25 -27 -14 -19 -20 -11 0 0 -1 -1 -2 0 0 0 0 0 0 0 0 0 0 0 0 0 0 0 0
0 0 0 0 0 0 0 0 0 0 0 0 0 0 0 0 0 0 -3 0 0 -18 -24 -20 -30 -14 0 0 -33 0 0 0 0 0 -1 -1 0 0 0 0 0 0 0 0 0 0 0 0 0
Wind_Speed
11 9 7 3 3 6 12 10 12 17 17 7 5 2 4 9 6 2 7 4 23 19 19 20 23 24 24 24 22 21 20 19 20 20 21 21 21 19 16 16 16 17 21 22 23 24 24 25 23
10 7 2 4 6 12 10 13 16 15 16 6 3 4 7 8 6 7 8 8 22 20 18 18 23 23 24 25 23 20 19 19 20 20 21 21 21 18 17 16 16 19 20 23 23 24 24 22 22
11 6 3 5 9 18 12 14 15 16 12 9 5 7 6 5 9 11 9 11 22 21 18 17 23 23 24 23 24 22 20 19 20 20 20 21 20 18 17 16 17 19 20 23 23 24 23 22 19
5 2 5 9 20 12 22 18 20 23 17 11 6 7 6 9 3 8 13 9 21 21 19 21 22 24 23 23 23 22 21 20 20 20 20 20 20 18 19 20 18 20 21 23 24 23 23 20 19
4 4 8 12 22 20 19 19 15 12 12 10 10 9 6 4 9 9 9 7 21 20 18 20 24 23 23 22 22 23 22 22 21 20 20 20 20 19 21 20 20 22 23 23 24 23 22 18 17
4 4 10 18 21 20 18 18 20 19 17 14 7 7 6 9 6 7 10 8 17 19 19 19 21 23 23 23 22 23 23 22 22 21 21 21 18 20 22 21 22 24 25 25 24 23 21 19 20
7 10 18 22 20 19 15 12 16 19 18 17 9 12 8 7 7 8 6 8 12 19 19 17 16 18 21 21 21 21 23 22 22 21 19 19 19 20 22 23 24 25 26 25 23 22 20 21 26
5 8 19 17 19 25 15 19 21 20 11 12 7 12 6 8 11 9 7 7 10 19 18 19 17 15 16 15 21 21 21 20 21 19 16 14 16 19 20 22 24 26 26 25 23 22 20 22 26
8 9 17 19 19 18 14 17 15 14 14 11 7 3 5 6 7 11 7 6 15 15 18 18 18 17 16 15 15 18 18 19 20 19 19 13 9 13 16 19 25 26 25 26 23 22 19 17 17
13 12 14 13 17 20 19 17 16 17 18 16 8 3 8 10 2 11 9 8 14 18 19 18 18 18 17 13 15 14 13 11 11 12 13 8 9 11 15 18 24 26 24 25 23 20 15 10 10
12 25 19 21 23 24 25 20 16 17 14 13 19 14 8 11 7 7 9 9 16 18 15 20 19 19 18 15 11 8 8 8 8 13 12 10 9 11 11 10 10 11 16 10 12 9 4 7 11
16 22 21 18 22 22 21 21 23 20 19 21 25 25 24 12 9 10 8 8 15 16 16 21 21 18 17 13 11 11 10 10 8 10 13 10 10 9 11 9 10 10 7 8 5 5 7 11 14
19 17 20 25 24 23 22 20 23 24 22 20 24 24 23 21 9 8 11 9 14 16 18 21 22 20 17 17 13 12 11 10 11 11 12 10 12 11 10 11 9 9 6 8 9 7 6 11 13
17 19 21 22 25 22 22 22 21 20 19 21 20 22 22 24 22 8 9 13 11 16 18 18 22 20 19 17 18 14 12 13 10 7 13 14 11 10 12 11 11 8 9 8 8 7 8 6 9
17 21 20 18 16 20 16 14 17 19 20 19 22 15 19 23 24 17 7 14 16 12 19 19 19 20 20 20 18 14 13 13 10 8 15 16 14 14 13 11 10 10 10 11 9 8 8 9 9
14 10 12 16 21 20 21 20 18 21 19 20 14 14 17 20 22 26 14 8 15 16 19 19 17 21 21 20 16 14 15 13 11 8 12 17 17 16 11 11 11 12 10 9 9 9 8 8 8
9 13 19 23 17 23 21 24 20 19 22 20 17 16 18 18 22 25 22 15 11 15 16 19 19 22 21 22 17 18 19 15 13 7 12 18 17 12 13 10 12 13 10 9 10 8 9 9 8
18 18 20 20 21 21 22 23 21 21 21 22 20 18 17 19 21 23 26 14 9 13 16 19 19 22 22 18 17 15 16 15 15 7 13 19 15 14 12 12 14 12 10 10 9 11 6 9 9
16 17 19 22 20 24 21 22 23 21 19 18 21 20 19 21 19 22 25 21 9 16 16 21 24 25 16 16 16 14 15 16 15 9 16 18 16 16 14 12 15 12 11 12 12 11 13 7 10
17 17 18 21 18 20 23 26 22 21 22 22 19 23 20 20 19 21 22 20 15 10 18 21 24 28 20 15 15 15 15 16 17 13 14 14 15 14 15 15 14 15 11 13 12 14 8 9 8
14 19 18 23 27 20 22 25 15 21 23 21 21 20 21 21 18 22 22 20 15 14 19 19 24 29 25 23 17 15 15 14 14 15 13 13 15 16 16 17 14 15 12 12 13 13 17 12 3
16 18 26 27 22 15 8 18 13 13 12 13 13 15 19 20 20 22 21 18 15 14 11 21 24 23 22 24 21 24 16 16 14 14 14 15 17 15 15 17 16 15 11 13 12 11 9 9 11
21 24 30 31 22 12 21 4 5 12 15 18 20 22 23 18 22 22 24 19 18 9 8 15 18 12 25 23 22 20 18 14 17 15 20 16 15 15 13 15 16 15 11 12 14 11 9 4 6
18 21 29 13 1 1 3 2 4 9 16 20 21 22 23 23 16 23 25 20 17 10 5 12 16 17 19 25 24 25 22 20 18 16 15 14 13 12 14 14 15 15 13 13 11 10 9 6 6
17 19 9 8 6 5 5 12 6 12 16 20 22 26 23 23 21 21 22 19 15 11 7 9 15 16 25 24 24 22 26 23 23 22 16 19 14 13 15 16 16 14 15 13 12 9 10 8 8
8 11 6 9 8 15 22 1 4 15 14 19 22 22 20 21 17 16 20 16 13 9 7 8 16 17 19 19 23 25 27 18 15 19 17 14 15 15 18 16 16 16 17 14 13 8 9 7 6
7 12 15 8 14 10 7 2 5 27 30 31 30 25 21 21 19 19 19 16 14 9 8 11 14 14 18 24 18 18 17 22 22 19 19 15 16 14 18 16 16 16 16 15 13 9 8 7 6
5 10 7 5 7 10 9 6 6 27 27 32 31 24 23 19 18 16 15 14 14 9 8 11 17 18 14 20 14 17 17 19 19 18 17 17 17 17 18 17 17 16 15 14 13 9 8 9 6
5 6 4 5 4 6 9 5 10 26 25 31 29 23 21 19 18 18 11 16 16 10 10 14 14 18 17 17 15 14 14 17 18 18 17 17 17 17 17 15 16 16 15 15 12 11 11 11 9
15 6 5 4 6 8 5 7 17 22 25 24 27 22 20 17 17 17 10 17 15 11 11 13 15 17 17 15 18 16 15 16 16 17 16 16 17 17 15 14 15 15 15 14 13 13 13 13 12
Wind_Direction
278 241 244 289 242 228 233 227 244 255 262 268 276 4 335 253 261 220 164 146 126 139 147 153 154 152 149 150 150 149 148 147 141 140 137 135 132 127 124 118 122 122 114 107 104 100 98 95 95
287 256 297 268 232 237 231 227 250 242 243 246 96 344 304 284 295 130 147 159 133 141 149 156 155 152 151 148 148 148 150 146 145 142 141 139 133 129 125 123 122 118 115 110 106 101 97 95 89
277 267 266 215 228 235 242 245 256 237 240 244 214 170 223 259 267 167 150 152 134 144 153 157 158 157 151 148 147 148 148 149 144 144 139 136 131 128 124 121 115 115 116 110 108 104 99 94 90
275 210 274 250 242 234 233 249 267 281 275 228 186 250 157 221 336 55 137 153 135 147 156 152 159 160 157 150 147 147 147 147 145 145 139 134 131 124 116 115 115 118 115 110 106 105 100 101 95
259 264 236 238 243 252 267 279 285 266 268 265 199 227 175 195 102 97 125 174 142 151 151 155 160 161 156 152 149 146 145 144 143 144 141 135 126 119 121 116 118 116 114 113 109 107 103 99 94
264 237 243 243 245 244 244 242 257 270 276 267 281 187 228 269 152 136 139 184 145 150 144 156 159 159 156 152 152 147 144 143 142 141 138 132 123 123 124 121 120 118 115 111 110 110 103 91 80
245 265 252 265 270 273 278 274 246 240 242 254 236 258 188 244 134 144 166 183 155 146 146 153 157 157 155 152 150 148 145 143 141 138 132 128 126 131 129 128 123 117 111 111 110 108 102 95 85
254 258 256 258 271 274 277 271 286 281 277 235 227 243 221 215 143 142 176 194 142 147 154 154 161 158 157 153 149 147 145 142 137 130 120 116 128 132 131 129 123 116 113 111 111 108 103 98 93
268 252 255 247 251 261 280 293 309 312 288 271 237 248 306 317 183 144 167 203 145 149 152 158 159 162 158 151 144 139 138 134 131 125 119 119 126 122 123 123 120 116 116 113 113 109 102 95 93
221 237 261 263 281 297 307 314 323 327 315 314 277 315 316 308 192 157 168 187 150 158 159 161 163 163 158 152 151 144 138 138 136 135 134 125 127 123 123 122 120 117 117 116 118 115 109 101 100
250 250 271 275 286 295 297 306 337 313 297 310 331 330 224 275 229 184 182 186 168 175 163 170 167 163 162 155 160 149 144 142 141 144 144 140 114 123 129 120 114 114 117 125 125 118 106 85 95
313 311 317 321 322 322 311 308 288 291 289 318 313 309 310 312 274 186 196 204 180 186 172 175 164 164 166 153 157 153 152 145 149 157 151 133 129 132 128 124 126 121 130 126 132 107 88 86 99
296 313 318 317 313 306 305 296 299 282 296 294 302 308 313 308 296 296 180 206 189 193 182 176 163 164 166 157 154 154 156 147 156 158 149 129 138 136 131 130 132 135 131 110 99 88 82 92 104
295 298 312 312 307 306 300 295 292 280 277 286 290 291 294 296 299 282 254 195 200 194 193 180 167 160 166 161 158 157 148 151 162 154 141 135 139 134 136 138 139 128 113 109 105 103 97 84 107
308 294 290 284 293 302 316 318 292 301 300 308 277 306 314 296 285 276 278 207 194 203 195 181 167 155 171 163 157 153 149 151 157 159 132 130 140 140 143 139 134 121 121 117 112 99 92 93 89
287 299 303 304 314 311 321 300 302 301 294 293 316 303 301 302 298 288 259 268 195 195 202 185 164 160 175 164 158 153 152 149 161 168 127 138 144 143 139 139 130 128 126 125 118 117 108 96 93
324 308 311 305 318 310 302 299 301 301 298 293 284 285 288 293 295 288 266 249 232 205 197 182 168 165 179 164 157 156 151 153 165 165 132 139 145 142 138 139 137 129 129 124 126 120 119 113 101
312 312 304 296 302 296 294 292 296 286 269 276 276 272 274 275 276 285 293 250 230 209 192 185 175 170 177 161 158 159 153 156 164 158 141 144 150 141 139 144 134 127 129 130 127 124 105 117 115
295 286 286 292 294 295 289 286 282 281 280 259 260 263 262 263 273 275 282 271 235 205 199 190 178 177 172 170 161 162 156 151 160 135 143 148 146 155 149 141 135 135 140 138 134 127 126 103 116
298 307 301 294 296 295 294 283 285 276 276 272 262 256 250 254 260 267 272 270 256 227 207 196 195 176 167 177 163 156 158 152 158 144 148 146 145 146 149 143 144 142 139 137 135 138 125 124 143
325 303 304 298 301 283 278 281 273 271 257 258 263 242 252 252 247 260 267 268 255 229 211 205 200 178 163 164 160 160 152 153 155 148 142 148 148 152 152 149 148 144 142 143 142 145 144 152 164
308 305 294 292 302 296 302 289 323 348 350 354 321 248 242 240 236 252 262 269 255 242 218 208 202 187 167 163 160 159 152 157 157 158 147 154 156 154 157 153 147 142 142 145 148 148 153 156 158
298 316 303 296 281 279 285 249 7 358 356 347 337 330 325 295 223 232 251 258 271 287 215 203 205 203 164 164 168 153 159 152 152 162 151 149 153 154 158 150 142 141 141 146 150 150 154 144 149
327 316 304 292 236 327 270 329 58 14 345 335 329 321 315 310 270 222 233 247 260 263 278 198 182 181 174 164 170 160 166 158 149 155 153 151 151 156 159 150 147 145 145 148 148 148 151 146 134
341 338 330 352 11 307 310 327 61 355 6 345 329 318 309 298 294 225 223 236 249 244 243 212 197 176 181 176 162 167 157 165 157 157 160 157 157 161 164 159 154 152 149 147 151 146 159 153 159
329 349 329 312 329 302 305 266 119 18 356 343 332 314 311 303 302 293 213 220 244 237 231 194 180 186 181 164 171 166 160 149 159 162 159 166 162 161 161 160 156 150 148 148 153 146 162 146 151
322 358 304 258 261 268 257 173 196 354 352 348 334 324 319 306 299 292 215 216 238 232 219 184 173 171 195 158 161 155 165 159 157 165 156 166 156 156 161 162 156 147 149 152 150 150 151 140 144
41 335 330 330 307 309 325 331 350 356 344 335 328 320 321 310 312 282 193 201 234 212 207 176 172 169 160 146 159 161 172 157 151 157 151 162 156 153 158 162 155 148 150 149 149 150 148 141 142
355 3 338 280 294 320 335 316 5 351 337 327 321 324 324 322 323 312 194 211 229 207 181 160 151 158 160 150 139 148 160 145 152 145 145 152 148 152 153 157 150 150 152 153 151 155 150 146 143
69 5 335 309 324 297 298 275 13 335 331 324 321 329 333 333 343 339 278 206 200 194 150 152 148 157 148 141 149 141 134 146 149 138 142 148 151 148 145 154 152 151 153 155 155 156 156 154 157